Location: Franzen
(48.6167°N, 15.3833°E)
Time: 18:35:09
(UTC+00:00)

A-11 Canister half - Pass Details

Date: 06 August 2021
Orbit: 1515 x 1685 km, 47.2° (Epoch: 19 September)

Event Time Altitude Azimuth Distance (km) Brightness Sun altitude
Rises 14:55:49 0° 233° (SW) 4,744 12.5 33.4°
Reaches altitude 10° 14:58:53 10° 230° (SW) 3,784 12.1 32.9°
Maximum altitude 15:08:19 61° 153° (SSE) 1,813 9.8 31.4°
Drops below altitude 10° 15:18:06 10° 77° (ENE) 3,920 10.7 29.8°
Sets 15:21:20 0° 74° (ENE) 4,923 11.1 29.3°
